FW8396 Weather Reports


Display with metric or nautical units.
time (UTC)temp
F
wind
direction
speed
MPH
gust
MPH
rain 1hr
in
rain 24hr
in
rain mn
in
humidity
%
barometer
mb
20260901040033 85 140 0.0 3.0 0.00 0.17 0.17 78 1016.9
20260901034535 86 151 1.0 5.0 0.00 0.17 0.17 77 1016.9
20260901033034 86 0 0.0 4.0 0.00 0.17 0.17 76 1016.9
20260901031535 86 138 0.0 3.0 0.00 0.17 0.17 76 1016.7
20260901030033 86 0 0.0 3.0 0.00 0.17 0.17 76 1016.4
20260901024532 86 0 0.0 3.0 0.00 0.17 0.17 75 1015.9
20260901023040 86 0 0.0 2.0 0.00 0.17 0.17 75 1015.9
20260901021541 86 119 0.0 3.0 0.00 0.17 0.17 75 1015.8
20260901020045 87 138 1.0 4.0 0.00 0.17 0.17 74 1015.6
20260901014536 87 0 0.0 3.0 0.00 0.17 0.17 73 1015.5
20260901013034 87 161 0.0 4.0 0.00 0.17 0.17 73 1015.3
20260901011534 87 0 0.0 2.0 0.00 0.17 0.17 72 1015.4
20260901010037 88 124 0.0 3.0 0.00 0.17 0.17 72 1015.5
20260901004541 88 158 0.0 5.0 0.00 0.17 0.17 71 1015.6
20260901003036 89 0 0.0 4.0 0.00 0.17 0.17 70 1015.6
20260901001535 89 157 0.0 2.0 0.00 0.17 0.17 70 1015.7
20260901000048 89 129 1.0 7.0 0.00 0.17 0.17 70 1015.6
20260831234534 89 138 1.0 6.0 0.00 0.17 0.17 70 1015.7
20260831233032 90 110 1.0 6.0 0.00 0.17 0.17 69 1015.6
20260831231546 90 109 0.0 4.0 0.00 0.17 0.17 70 1015.7
20260831230037 90 135 1.0 4.0 0.00 0.17 0.17 70 1015.6
20260831224532 90 138 1.0 3.0 0.00 0.17 0.17 70 1015.7
20260831223042 90 109 0.0 3.0 0.00 0.17 0.17 71 1015.7
20260831221534 90 136 1.0 4.0 0.00 0.17 0.17 70 1015.7
20260831220034 90 84 0.0 3.0 0.00 0.17 0.17 71 1015.8
20260831214533 90 173 1.0 3.0 0.00 0.17 0.17 70 1015.8
20260831213034 89 0 0.0 3.0 0.00 0.17 0.17 71 1016.1
20260831211533 88 0 0.0 2.0 0.00 0.17 0.17 73 1016.3
20260831210034 86 0 0.0 2.0 0.00 0.17 0.17 79 1016.5
20260831204534 84 0 0.0 4.0 0.00 0.17 0.17 85 1016.8
20260831203034 82 170 0.0 2.0 0.01 0.17 0.17 87 1016.8
20260831201535 81 0 0.0 1.0 0.14 0.17 0.17 88 1016.9
20260831200124 81 0 0.0 3.0 0.17 0.17 0.17 88 1017.2
20260831194601 80 136 0.0 2.0 0.17 0.17 0.17 87 1017.4
20260831193033 80 175 2.0 10.0 0.16 0.16 0.16 85 1017.8
20260831191533 84 167 5.0 12.0 0.02 0.02 0.02 80 1017.9
20260831190037 92 84 1.0 8.0 0.00 0.00 0.00 67 1017.8
20260831184536 94 101 2.0 6.0 0.00 0.00 0.00 60 1017.7
20260831183037 95 158 1.0 4.0 0.00 0.00 0.00 59 1017.7
20260831181543 95 109 2.0 4.0 0.00 0.00 0.00 60 1017.9
20260831180033 93 0 1.0 5.0 0.00 0.00 0.00 62 1018.1
20260831174537 92 0 1.0 6.0 0.00 0.00 0.00 64 1018.1
20260831173037 91 88 1.0 4.0 0.00 0.00 0.00 65 1018.4
20260831171539 91 0 1.0 4.0 0.00 0.00 0.00 64 1018.4
20260831170038 93 5 2.0 6.0 0.00 0.00 0.00 62 1018.2
20260831164540 93 293 1.0 4.0 0.00 0.00 0.00 62 1018.1
20260831163039 92 36 2.0 7.0 0.00 0.00 0.00 64 1018.2
20260831161536 92 123 1.0 4.0 0.00 0.00 0.00 65 1018.2
20260831160035 91 291 1.0 3.0 0.00 0.00 0.00 65 1018.2
20260831154637 91 121 0.0 4.0 0.00 0.00 0.00 67 1018.2
20260831153037 91 57 3.0 5.0 0.00 0.00 0.00 67 1018.3
20260831151534 90 59 1.0 4.0 0.00 0.00 0.00 71 1018.2
20260831150036 90 111 1.0 4.0 0.00 0.00 0.00 71 1018.2
20260831144536 88 285 0.0 2.0 0.00 0.00 0.00 75 1018.1
20260831143100 87 287 0.0 3.0 0.00 0.00 0.00 77 1018.1
20260831141551 86 270 1.0 4.0 0.00 0.00 0.00 79 1018.1
20260831140040 85 0 1.0 3.0 0.00 0.00 0.00 79 1018.1
20260831134537 84 209 1.0 3.0 0.00 0.00 0.00 81 1017.9
20260831133037 83 204 0.0 3.0 0.00 0.00 0.00 83 1018.0
20260831131536 82 0 0.0 0.0 0.00 0.00 0.00 85 1017.9
20260831130043 81 0 0.0 1.0 0.00 0.00 0.00 85 1017.8
20260831124535 80 0 0.0 0.0 0.00 0.00 0.00 87 1017.6
20260831123034 79 0 0.0 0.0 0.00 0.00 0.00 87 1017.5
20260831121537 79 0 0.0 0.0 0.00 0.00 0.00 87 1017.2
20260831120036 80 0 0.0 0.0 0.00 0.00 0.00 86 1017.2
20260831114539 80 0 0.0 0.0 0.00 0.00 0.00 86 1017.1
20260831113040 80 0 0.0 0.0 0.00 0.00 0.00 85 1017.1
20260831111534 80 0 0.0 0.0 0.00 0.00 0.00 85 1017.0
20260831110037 80 0 0.0 1.0 0.00 0.00 0.00 85 1017.0
20260831104535 80 0 0.0 1.0 0.00 0.00 0.00 85 1016.9
20260831103033 80 0 0.0 0.0 0.00 0.00 0.00 85 1017.1
20260831101539 81 0 0.0 0.0 0.00 0.00 0.00 85 1017.0
20260831100033 81 0 0.0 0.0 0.00 0.00 0.00 84 1017.2
20260831094536 81 0 0.0 0.0 0.00 0.00 0.00 84 1017.1
20260831093034 81 0 0.0 0.0 0.00 0.00 0.00 84 1017.0
20260831091533 82 0 0.0 3.0 0.00 0.00 0.00 84 1017.1
20260831090042 82 0 0.0 3.0 0.00 0.00 0.00 83 1017.1
20260831084535 82 0 0.0 1.0 0.00 0.00 0.00 83 1017.1
20260831083034 82 0 0.0 1.0 0.00 0.00 0.00 83 1017.2
20260831081536 82 0 0.0 1.0 0.00 0.00 0.00 82 1017.3
20260831080034 83 0 0.0 3.0 0.00 0.00 0.00 82 1017.5
20260831074536 83 0 0.0 4.0 0.00 0.00 0.00 82 1017.2
20260831073034 83 0 0.0 4.0 0.00 0.00 0.00 81 1017.2
20260831071537 83 208 0.0 3.0 0.00 0.00 0.00 81 1017.2
20260831070038 83 0 0.0 5.0 0.00 0.00 0.00 81 1017.3
20260831064538 84 0 0.0 3.0 0.00 0.00 0.00 80 1017.4
20260831063035 84 0 0.0 5.0 0.00 0.00 0.00 80 1017.4
20260831061537 84 0 0.0 3.0 0.00 0.00 0.00 80 1017.5
20260831060035 84 0 0.0 2.0 0.00 0.00 0.00 80 1017.4
20260831054534 84 0 0.0 6.0 0.00 0.00 0.00 79 1017.5
20260831053035 84 161 0.0 5.0 0.00 0.00 0.00 79 1017.4
20260831051537 84 175 1.0 7.0 0.00 0.00 0.00 79 1017.4
20260831050034 85 134 1.0 6.0 0.00 0.00 0.00 78 1017.3
20260831044535 85 0 1.0 6.0 0.00 0.00 0.00 78 1017.3
20260831043034 85 0 1.0 4.0 0.00 0.00 0.00 78 1017.2
20260831041533 85 148 1.0 5.0 0.00 0.00 0.00 78 1017.0